ACA1344 CYHZ-MYNN

Flight info

Callsign ACA1344
Flight time N/A
Altitude 34000
Route KEVLU DCT AVAST/M077F340 DCT DRYED DCT LSIER DCT FLUPS DCT MAPYL/N0454F340 G437 ZQA
Aircraft B738/M-SDE2E3FGHIRWXY/LB1

Departure

Time N/A
Airport Halifax / Stanfield International Airport (CYHZ)

Arrival

Time 2026-05-06 20:47
Airport Lynden Pindling International Airport (MYNN)
Time Latitude Longitude Altitude Speed Heading
2026-05-06 20:24 26.26745 -76.78409 23328 ft 372 kts 201°
2026-05-06 20:24 26.24288 -76.79285 22982 ft 369 kts 202°
2026-05-06 20:25 26.21848 -76.80158 22635 ft 367 kts 201°
2026-05-06 20:25 26.19425 -76.81025 22291 ft 365 kts 201°
2026-05-06 20:25 26.17048 -76.81877 21951 ft 363 kts 201°
2026-05-06 20:25 26.14655 -76.82735 21616 ft 360 kts 201°
2026-05-06 20:26 26.12276 -76.83588 21271 ft 358 kts 201°
2026-05-06 20:26 26.09913 -76.84435 20935 ft 356 kts 201°
2026-05-06 20:26 26.07561 -76.85277 20595 ft 354 kts 201°
2026-05-06 20:26 26.05223 -76.86114 20259 ft 352 kts 201°
2026-05-06 20:27 26.02901 -76.86945 19924 ft 350 kts 201°
2026-05-06 20:27 26.00588 -76.87772 19586 ft 348 kts 201°
2026-05-06 20:27 25.98291 -76.88594 19263 ft 346 kts 201°
2026-05-06 20:27 25.96038 -76.89399 18932 ft 344 kts 201°
2026-05-06 20:28 25.93766 -76.90211 18603 ft 342 kts 201°
2026-05-06 20:28 25.91505 -76.91018 18272 ft 340 kts 200°
2026-05-06 20:28 25.89260 -76.91819 17926 ft 339 kts 200°
2026-05-06 20:28 25.87014 -76.92621 17557 ft 338 kts 200°
2026-05-06 20:29 25.84777 -76.93419 17220 ft 337 kts 200°
2026-05-06 20:29 25.83304 -76.93944 17002 ft 336 kts 200°
2026-05-06 20:29 25.81086 -76.94735 16680 ft 334 kts 200°
2026-05-06 20:29 25.78881 -76.95520 16350 ft 332 kts 200°
2026-05-06 20:30 25.75980 -76.96553 15918 ft 329 kts 200°
2026-05-06 20:30 25.71642 -76.98097 15279 ft 325 kts 200°
2026-05-06 20:30 25.70217 -76.98604 15067 ft 324 kts 200°
2026-05-06 20:31 25.68079 -76.99364 14748 ft 322 kts 200°
2026-05-06 20:31 25.65949 -77.00121 14430 ft 320 kts 200°
2026-05-06 20:31 25.63837 -77.00872 14111 ft 318 kts 200°
2026-05-06 20:31 25.61737 -77.01618 13798 ft 316 kts 199°
2026-05-06 20:32 25.58946 -77.02608 13377 ft 313 kts 199°
2026-05-06 20:32 25.56905 -77.03333 13068 ft 311 kts 199°
2026-05-06 20:32 25.55514 -77.03826 12857 ft 310 kts 199°
2026-05-06 20:32 25.53466 -77.04553 12545 ft 308 kts 199°
2026-05-06 20:33 25.51462 -77.05263 12234 ft 304 kts 199°
2026-05-06 20:33 25.49461 -77.05972 11923 ft 300 kts 199°
2026-05-06 20:33 25.47493 -77.06669 11620 ft 295 kts 199°
2026-05-06 20:33 25.45557 -77.07355 11318 ft 289 kts 199°
2026-05-06 20:34 25.43662 -77.08025 11026 ft 283 kts 199°
2026-05-06 20:34 25.41805 -77.08683 10738 ft 277 kts 199°
2026-05-06 20:34 25.39985 -77.09327 10457 ft 272 kts 199°
2026-05-06 20:34 25.38201 -77.09956 10185 ft 266 kts 199°
2026-05-06 20:35 25.36463 -77.10569 10050 ft 258 kts 199°
2026-05-06 20:35 25.34749 -77.11174 9829 ft 262 kts 199°
2026-05-06 20:35 25.33030 -77.11783 9574 ft 263 kts 199°
2026-05-06 20:35 25.31293 -77.12396 9303 ft 261 kts 199°
2026-05-06 20:36 25.29565 -77.13007 9040 ft 260 kts 198°
2026-05-06 20:36 25.27849 -77.13614 8773 ft 258 kts 198°
2026-05-06 20:36 25.26143 -77.14216 8504 ft 257 kts 198°
2026-05-06 20:36 25.24440 -77.14818 8231 ft 256 kts 198°
2026-05-06 20:37 25.22747 -77.15417 7970 ft 255 kts 198°
2026-05-06 20:37 25.21074 -77.16008 7732 ft 249 kts 198°
2026-05-06 20:37 25.19463 -77.16577 7451 ft 244 kts 198°
2026-05-06 20:37 25.17867 -77.17139 7179 ft 238 kts 198°
2026-05-06 20:38 25.16310 -77.17687 6931 ft 232 kts 198°
2026-05-06 20:38 25.14797 -77.18220 6679 ft 226 kts 198°
2026-05-06 20:38 25.13318 -77.18741 6443 ft 221 kts 198°
2026-05-06 20:38 25.11861 -77.19255 6218 ft 219 kts 198°
2026-05-06 20:39 25.10420 -77.19762 6009 ft 214 kts 198°
2026-05-06 20:39 25.09047 -77.20245 5793 ft 207 kts 198°
2026-05-06 20:39 25.07687 -77.20722 5565 ft 204 kts 198°
2026-05-06 20:39 25.06345 -77.21195 5351 ft 203 kts 198°
2026-05-06 20:40 25.04998 -77.21669 5137 ft 202 kts 198°
2026-05-06 20:40 25.03679 -77.22134 5040 ft 198 kts 198°
2026-05-06 20:40 25.02349 -77.22602 4953 ft 203 kts 198°
2026-05-06 20:40 25.00991 -77.23079 4866 ft 207 kts 198°
2026-05-06 20:41 24.99620 -77.23562 4764 ft 206 kts 198°
2026-05-06 20:41 24.98263 -77.24039 4665 ft 204 kts 198°
2026-05-06 20:41 24.96908 -77.24516 4480 ft 206 kts 198°
2026-05-06 20:41 24.95724 -77.25320 4289 ft 201 kts 225°
2026-05-06 20:42 24.94766 -77.26411 4086 ft 196 kts 224°
2026-05-06 20:42 24.93805 -77.27461 3879 ft 193 kts 224°
2026-05-06 20:42 24.92861 -77.28489 3676 ft 188 kts 224°
2026-05-06 20:42 24.91948 -77.29482 3502 ft 182 kts 223°
2026-05-06 20:43 24.91216 -77.30583 3260 ft 181 kts 253°
2026-05-06 20:43 24.91288 -77.31946 3099 ft 185 kts 295°
2026-05-06 20:43 24.92109 -77.33033 2938 ft 186 kts 316°
2026-05-06 20:43 24.93026 -77.34023 2706 ft 181 kts 315°
2026-05-06 20:44 24.93882 -77.34978 2504 ft 174 kts 315°
2026-05-06 20:44 24.94713 -77.35903 2364 ft 171 kts 315°
2026-05-06 20:44 24.95551 -77.36834 2143 ft 172 kts 316°
2026-05-06 20:44 24.96386 -77.37765 1913 ft 169 kts 316°
2026-05-06 20:45 24.97208 -77.38683 1694 ft 166 kts 316°
2026-05-06 20:45 24.97998 -77.39562 1467 ft 157 kts 316°
2026-05-06 20:45 24.98750 -77.40402 1264 ft 151 kts 317°
2026-05-06 20:45 24.99485 -77.41221 1078 ft 150 kts 317°
2026-05-06 20:46 25.00223 -77.42042 875 ft 151 kts 317°
2026-05-06 20:46 25.00953 -77.42856 672 ft 152 kts 316°
2026-05-06 20:46 25.01685 -77.43690 467 ft 151 kts 317°
2026-05-06 20:46 25.02432 -77.44506 269 ft 151 kts 316°
2026-05-06 20:47 25.03172 -77.45329 67 ft 151 kts 314°
2026-05-06 20:47 25.03870 -77.46115 20 ft 129 kts 315°
2026-05-06 20:47 25.04356 -77.46652 17 ft 68 kts 315°
2026-05-06 20:47 25.04568 -77.46887 20 ft 27 kts 315°
2026-05-06 20:48 25.04682 -77.47014 20 ft 17 kts 315°
2026-05-06 20:48 25.04761 -77.47060 20 ft 13 kts 20°
2026-05-06 20:48 25.04795 -77.46976 18 ft 12 kts 76°
2026-05-06 20:48 25.04798 -77.46892 17 ft 9 kts 111°
2026-05-06 20:49 25.04767 -77.46846 17 ft 7 kts 133°
2026-05-06 20:49 25.04731 -77.46807 17 ft 7 kts 136°
2026-05-06 20:49 25.04707 -77.46762 17 ft 7 kts 93°
2026-05-06 20:49 25.04728 -77.46716 16 ft 7 kts 46°
2026-05-06 20:50 25.04768 -77.46704 16 ft 5 kts 347°
2026-05-06 20:50 25.04791 -77.46719 16 ft 2 kts 320°
2026-05-06 20:50 25.04801 -77.46730 16 ft 0 kts 312°